{"data":{"norad_id":59606,"intl_designator":"2024-080F","name":"STARLINK-31782","alt_names":[],"object_type":"PAYLOAD","status":"ACTIVE","operator":null,"country":"US","launch_date":"2024-04-28","launch_site_code":"AFETR","launch_vehicle":null,"mission":null,"orbit_class":"UNKNOWN","rcs_meters":null,"size_class":null,"mass_kg":null,"dimensions":null,"purposes":["comms"],"wikipedia_slug":null,"has_3d_model":false,"image_url":null,"decayed_at":null,"tle_current":{"epoch":"2026-09-21T08:41:56.143968Z","epoch_age_seconds":93753,"freshness":"FRESH","line1":"1 59606U 24080F   26264.36245537 -.00001643  00000+0 -50197-4 0  9996","line2":"2 59606  43.0037  16.7084 0001012 302.3203  57.7551 15.27586351134414","mean_motion":15.27586351,"eccentricity":0.0001012,"inclination_deg":43.0037,"raan_deg":16.7084,"arg_perigee_deg":302.3203,"mean_anomaly_deg":57.7551,"bstar":-5.0197e-5,"rev_number":13441,"period_min":94.266356795957,"perigee_km":482.33572881839,"apogee_km":483.72442903517,"semimajor_km":6861.1670789268,"source":"CELESTRAK","updated_at":"2026-09-22T09:00:49.009905Z"}}}